2000 GE2  

Epoch 2000 Apr. 6.0 TT = JDT 2451640.5                  Nakano

M 328.18231              (2000.0)            P               Q

n   0.49130480     Peri.  297.23137     +0.33060509     +0.94375425

a   1.5906283      Node   352.06863     -0.85171484     +0.29593035

e   0.5545446      Incl.    2.20487     -0.40654903     +0.14748944

P   2.01           H   20.1           G   0.15           U   *

Residuals in seconds of arc 

000330 704  0.2-  0.2+    000405 860  0.9+  0.5+    000406 151  0.2+  0.2-  

000330 704  0.1+  0.2-    000405 704  0.4+  0.1+    000406 151  0.5-  0.3+  

000330 704  0.1+  0.0     000405 704  0.7+  0.3+    000407 163  0.2+  0.3-  

000330 704  0.7+  0.2-    000405 704  0.7+  0.2-    000407 163  0.4+  0.2-  

000330 704  0.1+  0.3+    000405 704  0.8+  0.2+    000407 163  0.6+  0.3-  

000403 704  0.4-  0.0     000405 699  0.3-  0.5-    000407 704  0.3+  1.0+  

000403 704  0.5-  0.3+    000405 704  0.7+  0.2+    000407 704  0.2+  0.2+  

000403 699  1.3-  0.1-    000405 699  0.3-  0.4-    000407 704  0.3+  0.1+  

000403 704  0.8-  0.2+    000405 699  0.3-  0.7-    000407 704  0.5+  0.0   

000403 699  0.0   0.0     000405 699  0.4-  0.6-    000407 704  0.9+  0.3+  

000403 699  0.3-  0.2-    000405 345  1.6-  0.5-    000407 151  0.3-  0.4-  

000403 699  0.3+  0.0     000405 345  1.6-  0.8-    000407 151  0.7-  0.7+  

000404 704  0.6+  0.2-    000406 704  0.0   0.3+    000407 151  0.8-  0.5+  

000404 704  0.5+  0.2-    000406 704  0.0   0.1+    000407 151  0.3+  0.2-  

000404 854  1.3-  0.4-    000406 673 (2.5-  0.2+)   000407 151  1.3-  0.7+  

000404 854  0.4-  0.7+    000406 704  0.2+  0.2+    000407 151  0.6+  1.2+  

000404 704  0.3+  0.0     000406 673 (2.1-  0.1+)   000408 402  0.1+  0.5-  

000404 704  0.3+  0.1-    000406 704  0.1+  0.0     000408 402  0.6+  0.5-  

000404 704  0.3+  0.0     000406 704  0.0   0.1-    000408 402  1.2+  0.5-  

000404 704  1.5+  0.0     000406 903  0.8-  0.4-    000408 151  0.1+  0.2-  

000404 704 (2.3+  1.2+)   000406 903  0.5-  0.2-    000408 151  0.3+  0.5+  

000404 704  0.4+  0.2+    000406 900  1.0+  0.1-    000408 151  0.0   0.3+  

000404 688  0.3+  0.0     000406 900  0.3+  0.3+    000408 151  0.8-  0.5+  

000404 704  0.1+  0.2+    000406 046  0.1-  0.1+    000408 151  0.2+  1.4+  

000404 704  0.1+  0.1-    000406 046  0.3-  0.3+    000408 151  1.0-  0.3+  

000404 688  0.3+  0.1+    000406 046  0.2-  0.1-    000409 739  0.3-  0.4-  

000404 673  1.5-  0.2+    000406 046  0.4+  0.1-    000409 739  0.3-  1.0+  

000404 673  0.9-  0.4+    000406 046  0.3+  0.1+    000409 739  0.3+  0.1-  

000404 673 (3.3-  0.3-)   000406 151 (2.5-  0.0 )   000410 670  0.3-  1.2-  

000405 860  0.4+  0.2-    000406 151  1.1-  0.2-    000410 670  0.5+  0.7-  

000405 860  0.1+  0.7-    000406 151  0.6-  1.3-                            

000405 860  0.7+  0.5+    000406 151  0.3+  0.4-                            

  

NAKANO

         **** Don't distribute anyone except personal use only ****

                (C) Copyright 2000 OAA/ComputingSection

write mail from CFAD0::NAKANO on 2000-04-12 01:19:51(JST).

 





–ß‚è‚Ü‚·B